Tracking 23764 objects as of 17-Oct-2021
HD Live streaming from Space Station
objects crossing your sky now

SL-8 R/B

Track SL-8 R/B now!
10-day predictions


NORAD ID: 15752
Int'l Code: 1985-041B
Perigee: 976.8 km
Apogee: 1,014.2 km
Inclination: 83.0 °
Period: 104.9 minutes
Semi major axis: 7366 km
RCS: 4.952 m2 (large)
Launch date: May 30, 1985
Source: Commonwealth of Independent States (former USSR) (CIS)
Launch site: PLESETSK MISSILE AND SPACE COMPLEX (PKMTR)

Note: This is a ROCKET BODY
aabbcc
Your satellite tracking list
Your tracking list is empty




NASA's NSSDC Master Catalog

Two Line Element Set (TLE):
1 15752U 85041B   21290.27104168  .00000044  00000-0  30617-4 0  9990
2 15752  82.9525 218.7558 0025408  49.5757 310.7608 13.73132470823116
Source of the keplerian elements: AFSPC